Location: Colonia Mina de C?rbuni
(46.1667°N, 22.7167°E)
Time: 12:26:32
(UTC+00:00)

Cosmos 1655 Rocket - Pass Details

Date: 04 February 2023
Orbit: 970 x 1006 km, 83.0° (Epoch: 25 March)

Event Time Altitude Azimuth Distance (km) Brightness Sun altitude
Rises 16:09:33 0° 350° (N) 3,696 7.0 -6.0°
Reaches altitude 10° 16:12:05 10° 350° (N) 2,740 6.3 -6.4°
Maximum altitude 16:18:22 84° 263° (W) 985 4.2 -7.4°
Drops below altitude 10° 16:24:34 10° 177° (S) 2,706 6.5 -8.5°
Sets 16:27:03 0° 176° (S) 3,648 7.1 -8.9°
